OBJECT H (44346 NORAD) Tracking and Keplerian Element Data

This shows tracking and keplerian element data for the satellite.

Feedback or suggestion? Click here.




ElementValue
Catalog44346
NameOBJECT H
Epoch Orbit2447
Epoch Day339.37484623
Epoch Year2019
RAAN218.9243
Inclination28.5287
Eccentricity0.033393
Argument of Perigee32.8031
Mean Anonmoly329.286
Mean Motion15.11087208
Decay Rate0.00384843
L11 44346U 19036H 19339.37484623 .00384843 00000-0 52514-2 0 9991
L22 44346 28.5287 218.9243 0333930 32.8031 329.2860 15.11087208 24472

Live tracking and technical data element details for OBJECT H (NORAD 44346). OBJECT H can be tracked NOW for your location showing map with azimuth and elevation plus other details from your city location.

Track the satellite on the map from your city or location and see movement details for azimuth, elevation, latitude, longitude, range, height, and movement on the map or in text.







IsCatalogInMostPopularTable: catalog: 44346, numindb: 21
Update: records affected: 1



GetName: 44346 OBJECT H

Hit Count: updated at: Thu, 12 Dec 2019 00:49:20 GMT